Regional Weather Roundup
Issued by NWS

Home | Current Version | Previous Version | Text Only | Print | Product List | Glossary Off
Versions: 1 2 3 4 5 6 7 8 9 10 11 12 13 14 15 16 17 18 19 20 21 22 23 24 25 26 27 28 29 30 31 32 33 34 35 36 37 38 39 40 41 42 43 44 45 46 47 48 49 50

479
ASUS43 KIND 200809
RWRIN

WEATHER ROUNDUP FOR INDIANA
NATIONAL WEATHER SERVICE INDIANAPOLIS IN
400 AM EDT FRI OCT 20 2017

NOTE: "FAIR" INDICATES FEW OR NO CLOUDS BELOW 12,000 FEET WITH NO
SIGNIFICANT WEATHER AND/OR OBSTRUCTIONS TO VISIBILITY.

* - STATION DOES NOT REPORT WEATHER SUCH AS PRECIPITATION OR FOG.

+ - STATION NOT QUALITY CONTROLLED BY THE NATIONAL WEATHER SERVICE.
    USE DATA WITH CAUTION...ESPECIALLY DEWPOINT AND RELATIVE
    HUMIDITY OBSERVATIONS.

INZ001>003-010>013-019-020-200900-
NORTHWEST INDIANA

CITY           SKY/WX    TMP DP  RH WIND       PRES   REMARKS
GARY /AIRPORT/ FAIR      55  41  58 S6        30.17S
KNOX *+        FAIR      48  41  76 SE6       30.19S
LA PORTE +     FAIR      45  39  81 CALM      30.19S
MICHIGAN CITY+ FAIR      54  41  62 S5        30.19R
MONTICELLO +   FAIR      49  48  95 CALM      30.19S
RENSSELAER +   FAIR      50  43  76 CALM      30.19S
VALPARAISO     FAIR      48  38  68 E3        30.19S

$$

LMZ046-743>745-200900-
SOUTHERN LAKE MICHIGAN

STATION/POSITION TIME  TEMP    WIND        PRES    WAVE
                       AIR SEA DIR/SP/G            HT
                 (UTC) (F)     (DEG/KT/KT) (MB)    (FT)
BURNS HARBOR     0740   59     180/  8/ 10 1021.7S
MICHIGAN CITY    0740   58     140/ 13/ 15   N/A
5NW MICH CITY    0800   58 58  180/ 10/ 14   N/A     1

$$

INZ004-005-014>016-021>024-200900-
NORTH CENTRAL INDIANA

CITY           SKY/WX    TMP DP  RH WIND       PRES   REMARKS
GOSHEN         FAIR      44  38  79 CALM      30.21R
LOGANSPORT +   FAIR      48  46  93 CALM      30.21S
PERU/GRISSOM   FAIR      51  50  95 SE3       30.21R
SOUTH BEND     FAIR      49  37  63 SE5       30.20S
WARSAW +       FAIR      45  39  81 CALM      30.22R

$$

INZ006>009-017-018-025>027-200900-
NORTHEAST INDIANA

CITY           SKY/WX    TMP DP  RH WIND       PRES   REMARKS
AUBURN +       FAIR      43  37  81 CALM      30.23R
FORT WAYNE     FAIR      47  43  86 CALM      30.23S
HUNTINGTON +   FAIR      47  46  95 CALM      30.22S FOG
KENDALLVILLE + FAIR      45  38  77 CALM      30.22S

$$

INZ028-029-035-036-043>045-051>053-200900-
WEST CENTRAL INDIANA

CITY           SKY/WX    TMP DP  RH WIND       PRES   REMARKS
CRAWFORDSVL +  FAIR      48  48 100 MISG      30.21S
GREENCASTLE +  FAIR      48  46  93 CALM      30.23S
LAFAYETTE      FAIR      49  49 100 CALM      30.20S
TERRE HAUTE    FAIR      49  47  93 CALM      30.22R

$$

INZ030>032-037>040-046>048-054>057-064-065-200900-
CENTRAL INDIANA

CITY           SKY/WX    TMP DP  RH WIND       PRES   REMARKS
CP ATTERBURY + FAIR      46  45  93 E3        30.24R
FISHERS *+     FAIR      48  48 100 CALM      30.22S
FRANKFORT +    FAIR      51  48  90 CALM      30.23S
GREENWOOD *+   FAIR      50  48  93 CALM      30.23S
INDIANAPOLIS   FAIR      54  50  86 S5        30.23S
-EAGLE CREEK   FAIR      50  48  93 CALM      30.22S FOG
KOKOMO +       FAIR      48  47  96 CALM      30.22S
MT COMFORT *+  FAIR      46  46 100 CALM      30.23S
SHELBYVILLE    FAIR      48  44  86 SE3       30.23S
ZIONSVILLE +   FAIR      46  45  97 S3        30.23S

$$

INZ033-034-041-042-049-050-058-059-200900-
EAST CENTRAL INDIANA

CITY           SKY/WX    TMP DP  RH WIND       PRES   REMARKS
MUNCIE         FAIR      46  44  93 S3        30.23S
RICHMOND +     FAIR      46  46 100 CALM      30.25S

$$

INZ060-061-067>069-081>083-085>088-200900-
SOUTHWEST INDIANA

CITY           SKY/WX    TMP DP  RH WIND       PRES   REMARKS
EVANSVILLE     FAIR      50  48  93 CALM      30.23S FOG
HUNTINGBURG +  FAIR      53  50  89 CALM      30.24S
WASHINGTON +   FAIR      48  47  94 SE5       30.23R

$$

INZ062-063-066-070>080-084-089>092-200900-
SOUTH CENTRAL AND SOUTHEAST INDIANA

CITY           SKY/WX    TMP DP  RH WIND       PRES   REMARKS
BEDFORD +      FAIR      50  48  93 CALM      30.23S
BLOOMINGTON    FAIR      49  46  90 CALM      30.23S
MADISON *+       N/A     46  46 100 CALM      30.26S VSB 1/2
NORTH VERNON + FAIR      45  45 100 CALM      30.25R
SEYMOUR +      FAIR      46  46 100 CALM      30.24S

$$





USA.gov is the U.S. government's official web portal to all federal, state and local government web resources and services.